Trapani, Italy

9:59 AM CET on February 23, 2018 (GMT +0100)
Birgi Mil

Weather History for LICT - January, 2014

Change the Weather History Date:

Wednesday, January 8, 2014

  Actual Average Record
Temperature  
Mean Temperature 52 °F -  
Max Temperature 63 °F 59 °F 66 °F (2018)
Min Temperature 42 °F 47 °F 39 °F (2012)
Degree Days  
Heating Degree Days 12    
Growing Degree Days 2 (Base 50)    
Moisture  
Dew Point 46 °F    
Average Humidity 80    
Maximum Humidity 93    
Minimum Humidity 53    
Precipitation  
Precipitation 0.00 in 0.07 in - ()
Sea Level Pressure  
Sea Level Pressure 30.31 in    
Wind  
Wind Speed 2 mph ()    
Max Wind Speed 5 mph    
Max Gust Speed -    
Visibility 13.3 miles    
Events      
Averages and records for this station are not official NWS values.
T = Trace of Precipitation, MM = Missing Value Source: Averaged Metar Reports

Daily Weather History Graph

Daily Weather History Graph

Search for Another Location

Airport or City:

Trip Planner

Search our weather history database for the weather conditions in past years. The results will help you decide how hot, cold, wet, or windy it might be!

Date:

Astronomy

Jan. 08, 2014 Rise Set
Actual Time 7:26 AM CET 5:07 PM CET
Civil Twilight 6:56 AM CET 5:36 PM CET
Nautical Twilight 6:24 AM CET 6:09 PM CET
Astronomical Twilight 5:52 AM CET 6:41 PM CET
Moon 11:47 AM CET (1/8) 12:17 AM CET (1/8)
Length of Visible Light 10h 39m
Length of Day
9h 41m
First Quarter, 53% of the Moon is Illuminated
Jan 8
First Quarter
Jan 16
Full
Jan 24
Last Quarter
Jan 30
New
Feb 6
First Quarter

Hourly Weather History & Observations

Time (CET) Temp. Windchill Dew Point Humidity Pressure Visibility Wind Dir Wind Speed Gust Speed Precip Events Conditions
12:00 AM 46 °F - 44 °F 91% 30.31 in 9 mi East 2.3 mph - -   Scattered Clouds
12:55 AM 44.6 °F - 42.8 °F 93% 30.30 in - East 1.2 mph - N/A   Clear
1:00 AM 45 °F - 42 °F 87% 30.31 in 9 mi East 1.2 mph - -  
1:55 AM 44.6 °F 43.1 °F 42.8 °F 93% 30.30 in - SE 3.5 mph - N/A   Clear
2:00 AM 45 °F - 42 °F 86% 30.31 in 9 mi SE 3.5 mph - -  
4:55 AM 46.4 °F 45.2 °F 41.0 °F 81% 30.30 in - ESE 3.5 mph - N/A   Clear
5:00 AM 46 °F - 41 °F 75% 30.31 in 9 mi ESE 3.5 mph - -  
5:55 AM 42.8 °F 41.1 °F 41.0 °F 93% 30.30 in - ESE 3.5 mph - N/A   Clear
6:00 AM 43 °F - 40 °F 87% 30.31 in 9 mi ESE 3.5 mph - -  
6:55 AM 42.8 °F - 41.0 °F 93% 30.30 in - ESE 1.2 mph - N/A   Clear
7:00 AM 43 °F - 40 °F 87% 30.32 in 10 mi ESE 1.2 mph - -   Clear
7:55 AM 42.8 °F - 39.2 °F 87% 30.33 in - ESE 1.2 mph - N/A   Clear
8:00 AM 42 °F - 39 °F 87% 30.35 in 19 mi ESE 1.2 mph - -   Clear
8:55 AM 48.2 °F - 46.4 °F 93% 30.36 in - East 3.5 mph - N/A   Clear
9:00 AM 49 °F - 46 °F 86% 30.36 in 19 mi East 3.5 mph - -   Clear
9:55 AM 55.4 °F - 48.2 °F 77% 30.36 in - ESE 1.2 mph - N/A   Clear
10:00 AM 56 °F - 49 °F 69% 30.36 in 19 mi ESE 1.2 mph - -   Clear
10:55 AM 60.8 °F - 50.0 °F 68% 30.33 in - ESE 1.2 mph - N/A   Clear
11:00 AM 61 °F - 49 °F 56% 30.36 in 19 mi ESE 1.2 mph - -   Clear
11:55 AM 62.6 °F - 50.0 °F 63% 30.33 in - Calm Calm - N/A   Clear
12:00 PM 62 °F - 49 °F 53% 30.33 in 19 mi Calm Calm - -   Clear
12:55 PM 60.8 °F - 50.0 °F 68% 30.30 in - WSW 4.6 mph - N/A   Clear
1:00 PM 61 °F - 51 °F 60% 30.32 in 19 mi WSW 4.6 mph - -   Clear
1:55 PM 60.8 °F - 50.0 °F 68% 30.27 in - West 2.3 mph - N/A   Clear
2:00 PM 61 °F - 51 °F 60% 30.30 in 19 mi West 2.3 mph - -   Clear
2:55 PM 60.8 °F - 51.8 °F 72% 30.30 in - WNW 2.3 mph - N/A   Clear
3:00 PM 61 °F - 52 °F 64% 30.30 in 19 mi WNW 2.3 mph - -   Clear
3:55 PM 59.0 °F - 50.0 °F 72% 30.30 in - NNW 3.5 mph - N/A   Clear
4:00 PM 59 °F - 51 °F 66% 30.30 in 19 mi NNW 3.5 mph - -   Clear
4:55 PM 57.2 °F - 50.0 °F 77% 30.27 in - NNW 1.2 mph - N/A   Clear
5:00 PM 57 °F - 50 °F 72% 30.30 in 19 mi NNW 1.2 mph - -   Clear
5:55 PM 53.6 °F - 48.2 °F 82% 30.30 in - Calm Calm - N/A   Clear
6:00 PM 53 °F - 48 °F 77% 30.31 in 10 mi Calm Calm - -   Clear
6:55 PM 51.8 °F - 48.2 °F 88% 30.30 in - Calm Calm - N/A   Clear
7:00 PM 53 °F - 48 °F 79% 30.30 in 9 mi Calm Calm - -  
7:55 PM 48.2 °F - 44.6 °F 87% 30.30 in - ESE 1.2 mph - N/A   Clear
8:00 PM 48 °F - 45 °F 86% 30.30 in 7 mi ESE 1.2 mph - -  
8:55 PM 48.2 °F - 44.6 °F 87% 30.30 in - SE 2.3 mph - N/A   Clear
9:00 PM 48 °F - 45 °F 86% 30.31 in 7 mi SE 2.3 mph - -  
9:55 PM 44.6 °F - 42.8 °F 93% 30.30 in - SE 1.2 mph - N/A   Clear
10:00 PM 45 °F - 43 °F 91% 30.32 in 7 mi SE 1.2 mph - -  
10:55 PM 44.6 °F - 42.8 °F 93% 30.30 in - Calm Calm - N/A   Clear
11:00 PM 45 °F - 43 °F 89% 30.32 in 7 mi Calm Calm - -   Partly Cloudy
11:55 PM 46.4 °F - 44.6 °F 93% 30.30 in - ESE 2.3 mph - N/A   Clear